Regional Weather Roundup
Issued by NWS Upton, NY

Current Version | Previous Version | Text Only | Print | Product List | Glossary On
Versions: 1 2 3 4 5 6 7 8 9 10 11 12 13 14 15 16 17 18 19 20 21 22 23 24 25 26 27 28 29 30 31 32 33 34 35 36 37 38 39 40 41 42 43 44 45 46 47 48 49 50
000 ASUS41 KOKX 012108 RWROKX REGIONAL WEATHER ROUNDUP NATIONAL WEATHER SERVICE NEW YORK NY 500 PM EDT WED JUL 01 2015 NOTE: "FAIR" INDICATES FEW OR NO CLOUDS BELOW 12,000 FEET WITH NO SIGNIFICANT WEATHER AND/OR OBSTRUCTIONS TO VISIBILITY. NYZ071-072-176-178-NJZ106-104-012200- NEW YORK CITY METRO AREA CITY SKY/WX TMP DP RH WIND PRES REMARKS CENTRAL PARK PTSUNNY 82 62 50 VRB6 29.79R LAGUARDIA APRT PTSUNNY 83 60 45 W16G23 29.75R KENNEDY INTL MOSUNNY 84 63 49 SW18 29.77R NEWARK/LIBERTY MOSUNNY 84 62 47 SW20G26 29.76R BRNX BOT. GARD N/A 82 61 47 SW12 29.77S TETERBORO MOSUNNY 83 61 47 W13G24 29.75R $$ NYZ177-179-078>081-012200- LONG ISLAND NEW YORK CITY SKY/WX TMP DP RH WIND PRES REMARKS FARMINGDALE SUNNY 80 67 64 S17 29.77R ISLIP MOSUNNY 79 66 64 SW20 29.76R SHIRLEY SUNNY 79 68 69 S14 29.78R WESTHAMPTON SUNNY 77 66 68 SW9G20 29.79R MONTAUK POINT N/A 77 66 68 SW9G18 29.78R $$ NYZ052-065-067-012200- HUDSON VALLEY CITY SKY/WX TMP DP RH WIND PRES REMARKS WHITE PLAINS PTSUNNY 80 60 50 W12 29.76R NEWBURGH MOSUNNY 79 63 57 W12G28 29.77R MONTGOMERY NOT AVBL POUGHKEEPSIE SUNNY 82 58 43 SW15G26 29.74R ALBANY PTSUNNY 74 63 68 W13 29.72R $$ NJZ001-105-106-008-010-013-015-019>022-104-012200- NEW JERSEY CITY SKY/WX TMP DP RH WIND PRES REMARKS NEWARK/LIBERTY MOSUNNY 84 62 47 SW20G26 29.76R TETERBORO MOSUNNY 83 61 47 W13G24 29.75R CALDWELL MOSUNNY 83 60 45 W9G22 29.77R MORRISTOWN PTSUNNY 84 64 51 W13G21 29.78R SOMERVILLE MOSUNNY 81 62 52 W9 29.76S SUSSEX PTSUNNY 79 60 52 SW6 29.78R ANDOVER N/A 79 61 53 VRB7 29.80R TRENTON MOSUNNY 83 61 47 W14G23 29.79R MILLVILLE MOSUNNY 82 65 56 SW9 29.83S ATLANTIC CITY MOSUNNY 85 62 46 SW13G22 29.82R WRIGHTSTOWN PTSUNNY 82 66 57 W14 29.77S TOMS RIVER MOSUNNY 84 63 48 W12 29.79S BELMAR MOSUNNY 82 63 51 W14G20 29.79S $$ PAZ047>061-062-071-012200- EASTERN PENNSYLVANIA CITY SKY/WX TMP DP RH WIND PRES REMARKS PHILADELPHIA MOSUNNY 86 60 41 W22G28 29.81S ALLENTOWN MOSUNNY 80 60 50 W15G23 29.80S SCRANTON PTSUNNY 75 59 57 W16G24 29.81R $$ CTZ002-004>006-009-010-012-RIZ004-006-007-MAZ004-011-015-012200- SOUTHERN NEW ENGLAND IN CT CITY SKY/WX TMP DP RH WIND PRES REMARKS BRADLEY INTL MOSUNNY 82 60 47 SW15G23 29.70S HARTFORD PTSUNNY 82 62 50 SW15G21 29.72R DANBURY MOSUNNY 77 60 55 W7 29.78R WTRBRY/OXFORD MOSUNNY 79 63 57 W7G17 29.79R BRIDGEPORT SUNNY 81 66 60 SW12 29.74S MERIDEN PTSUNNY 81 63 54 SW12 29.74R NEW HAVEN MOSUNNY 78 66 66 SW9 29.75R CHESTER FAIR 79 63 57 SW9G18 29.76S GROTON SUNNY 75 66 73 SW9 29.75R WILLIMANTIC MOSUNNY 81 65 58 SW9 29.73S IN RI CITY SKY/WX TMP DP RH WIND PRES REMARKS PROVIDENCE MOSUNNY 80 63 55 SW20 29.73S BLOCK ISLAND SUNNY 72 64 78 SW17G25 29.78R WESTERLY SUNNY 78 66 66 SW10 29.77R IN MA CITY SKY/WX TMP DP RH WIND PRES REMARKS BOSTON MOSUNNY 82 64 54 SW14 29.68F WORCESTER MOSUNNY 78 61 55 W15 29.73S WESTFIELD SUNNY 81 60 48 SW16 29.70S PROVINCETOWN SUNNY 75 16 10 SW20G26 29.73S NANTUCKET SUNNY 69 65 86 S14 29.80S $$ ANZ330-335-338-340-345-350-353-355-012200- COASTAL MARINE OBSERVATIONS STATION/POSITION TIME SKY/WX TEMP WIND PRES VSBY WAVE AIR SEA DIR/SP/G HT/PER (UTC) (F) (DEG/KT/KT) (MB) (MI) (FT/S) NY HARB ENTRANCE 2050 73 70 210/ 12/ 14 1007.8 4/ 6 4S FIRE IS 2003 68 N/A 4/ 8 20S FIRE ISLAND 2050 70 67 200/ 14/ 16 1008.1 4/ 6 GREAT SOUTH BAY NOT AVBL 23SW MTP 2050 68 66 210/ 12/ 16 1008.2 4/ 7 HUDSON CANYON NOT AVBL KINGS POINT 2000 79 68 270/ 8/ 12 1006.6 CENTRAL LI SOUND NOT AVBL EASTERN LI SOUND 2000 72 65 240/ 8/ 12 N/A ROBBINS REEF 2000 82 250/ 21/ 27 1006.4 $$ >>>>>>>>>>>>>>>>>>>>>>>>>>>> KEY <<<<<<<<<<<<<<<<<<<<<<<<<<< > < > SKY/WX - SKY CONDITION/PRESENT WEATHER < > TMP - TEMPERATURE IN FAHRENHEIT < > DP - DEWPOINT IN FAHRENHEIT < > RH - RELATIVE HUMIDITY IN PERCENT < > WIND - DIRECTION AND SPEED IN MPH < > PRES - MEAN SEA LEVEL PRESSURE IN INCHES OF HG < > WCI - WIND CHILL INDEX < > VSB - VISIBILITY IN MILES < > HX - HEAT INDEX < > TC - TEMPERATURE IN CELSIUS < > VRB - VARIABLE WIND DIRECTION < > < >>>>>>>>>>>>>>>>>>>>>>>>>>>> KEY <<<<<<<<<<<<<<<<<<<<<<<<<<<

USA.gov is the U.S. government's official web portal to all federal, state and local government web resources and services.